K1VL Weather Reports


time (UTC)temp
F
wind
direction
speed
knots
gust
knots
rain 1hr
in
rain 24hr
in
rain mn
in
humidity
%
barometer
mb
20260506080515 51 0.0 0.0 0.00 0.14 0.04 99 1010.0
20260506073515 52 0.0 0.0 0.00 0.14 0.04 99 1009.8
20260506073015 52 0.0 0.0 0.00 0.14 0.04 99 1009.8
20260506072515 53 0.0 0.0 0.00 0.14 0.04 99 1009.8
20260506072015 53 0.0 0.0 0.00 0.14 0.04 99 1009.7
20260506071515 53 0.0 0.0 0.00 0.14 0.04 99 1009.9
20260506071015 53 0.0 0.0 0.00 0.14 0.04 99 1009.9
20260506070536 53 0.0 0.0 0.00 0.14 0.04 99 1010.0
20260506062019 54 0.0 0.0 0.00 0.14 0.04 98 1010.1
20260506061519 54 0.0 0.0 0.00 0.14 0.04 98 1010.1
20260506061019 55 0.0 0.9 0.01 0.14 0.04 98 1010.1
20260506060519 55 0.0 0.0 0.02 0.14 0.04 98 1010.1
20260506051036 55 293 0.9 3.5 0.03 0.13 0.03 99 1010.7
20260506050535 55 0.0 1.7 0.02 0.12 0.02 99 1010.5
20260506045015 55 0.0 0.9 0.00 0.10 0.00 99 1010.3
20260506044515 55 0.0 0.9 0.00 0.10 0.00 99 1010.3
20260506044015 54 0.0 0.0 0.00 0.10 0.00 99 1010.3
20260506043515 54 0.0 0.9 0.00 0.10 0.00 99 1010.3
20260506043015 54 0.0 0.0 0.00 0.10 0.00 99 1010.3
20260506042515 54 0.0 0.0 0.00 0.10 0.00 99 1010.1
20260506042036 54 0.0 0.9 0.00 0.10 0.00 99 1010.2
20260506041535 54 0.0 0.0 0.00 0.10 0.00 99 1010.2
20260506041056 54 0.0 0.0 0.00 0.10 0.00 99 1010.3
20260506040515 54 0.0 0.0 0.00 0.10 0.00 99 1010.3
20260506040015 54 0.0 0.0 0.00 0.10 0.01 98 1010.2
20260506035515 54 0.0 0.9 0.00 0.10 0.01 98 1010.1
20260506035015 54 0.0 0.9 0.00 0.10 0.01 98 1010.0
20260506034515 54 0.0 0.9 0.00 0.10 0.01 98 1010.0
20260506034035 54 0.0 0.9 0.00 0.10 0.01 98 1010.1
20260506033515 54 0.0 0.9 0.00 0.10 0.01 99 1010.1
20260506033015 54 0.0 0.9 0.00 0.10 0.01 98 1010.0
20260506032515 54 0.0 0.0 0.00 0.10 0.01 98 1010.0
20260506032015 54 0.0 0.0 0.00 0.10 0.01 98 1010.0
20260506031515 54 0.0 0.0 0.00 0.10 0.01 98 1009.9
20260506031015 54 0.0 0.9 0.00 0.10 0.01 98 1009.9
20260506030516 54 0.0 0.9 0.00 0.10 0.01 98 1009.9
20260506030015 54 0.0 0.9 0.00 0.10 0.01 98 1009.9
20260506025515 54 0.0 0.0 0.00 0.10 0.01 98 1009.8
20260506025015 54 0.0 0.9 0.00 0.10 0.01 98 1009.8
20260506024515 54 0.0 0.0 0.00 0.10 0.01 98 1009.8
20260506024015 54 0.0 0.0 0.00 0.10 0.01 98 1009.9
20260506023515 54 0.0 0.9 0.00 0.10 0.01 98 1009.8
20260506023015 54 0.0 0.0 0.00 0.10 0.01 98 1009.7
20260506022516 54 0.0 0.9 0.00 0.10 0.01 98 1009.7
20260506022016 54 0.0 0.9 0.00 0.10 0.01 98 1009.8
20260506021515 54 0.0 0.9 0.00 0.10 0.01 98 1009.8
20260506021015 54 0.0 0.0 0.00 0.10 0.01 99 1009.7
20260506020515 54 113 0.9 5.2 0.00 0.10 0.01 99 1009.8
20260506020015 54 0.0 0.0 0.00 0.10 0.01 99 1009.8
20260506015515 54 0.0 0.0 0.00 0.10 0.01 99 1009.8
20260506015015 54 0.0 0.0 0.00 0.10 0.01 99 1009.6
20260506014515 54 0.0 0.9 0.00 0.10 0.01 99 1009.7
20260506014015 53 0.0 1.7 0.00 0.10 0.01 99 1009.7
20260506013515 53 0.0 0.0 0.00 0.10 0.01 98 1009.6
20260506013015 53 0.0 0.0 0.00 0.10 0.01 98 1009.6
20260506012535 53 0.0 0.0 0.00 0.10 0.01 98 1009.5
20260506012015 53 0.0 0.9 0.00 0.10 0.01 98 1009.4
20260506011536 53 0.0 1.7 0.00 0.10 0.01 98 1009.2
20260506011016 54 0.0 0.9 0.00 0.10 0.01 98 1009.1
20260506010515 54 90 0.9 1.7 0.00 0.10 0.01 98 1009.1
20260506010015 54 0.0 0.9 0.00 0.10 0.01 98 1008.9
20260506005515 55 0.0 0.9 0.01 0.10 0.01 98 1008.9
20260506005015 55 0.0 0.0 0.01 0.10 0.01 98 1008.9
20260506004515 55 0.0 0.0 0.01 0.10 0.01 97 1008.9
20260506004015 55 0.0 0.0 0.01 0.10 0.01 98 1008.9
20260506003515 55 0.0 0.9 0.01 0.10 0.01 97 1009.0
20260506003015 56 0.0 1.7 0.01 0.10 0.01 97 1009.0
20260506002516 56 90 0.9 2.6 0.01 0.10 0.01 97 1008.9
20260506002015 56 0.0 0.0 0.01 0.10 0.01 97 1008.9
20260506001515 56 0.0 0.0 0.01 0.10 0.01 97 1009.0
20260506001015 56 0.0 0.0 0.01 0.10 0.01 97 1008.9
20260506000515 56 0.0 0.9 0.01 0.10 0.01 96 1008.8
20260506000015 56 0.0 0.9 0.01 0.10 0.01 96 1008.9
20260505235515 57 0.0 0.0 0.00 0.09 0.00 95 1009.1
20260505235015 57 0.0 0.9 0.00 0.09 0.00 95 1008.8
20260505234515 57 0.0 0.0 0.00 0.09 0.00 94 1008.9
20260505234015 58 0.0 0.0 0.00 0.09 0.00 92 1009.0
20260505233515 58 0.0 0.9 0.00 0.09 0.00 90 1009.1
20260505233015 59 0.0 2.6 0.00 0.09 0.00 86 1009.2
20260505232515 59 270 0.9 3.5 0.00 0.09 0.00 86 1009.1
20260505232015 59 0.0 1.7 0.00 0.09 0.00 87 1009.0
20260505231515 59 0.0 1.7 0.00 0.09 0.00 89 1009.2
20260505231015 59 0.0 1.7 0.00 0.09 0.00 91 1009.0
20260505230616 59 0.0 0.0 0.00 0.09 0.00 93 1009.0
20260505230015 59 0.0 2.6 0.00 0.09 0.00 92 1008.9
20260505225516 59 0.0 0.0 0.00 0.09 0.00 94 1008.9
20260505215036 60 315 2.6 7.0 0.00 0.09 0.09 90 1008.1
20260505214516 60 315 1.7 4.3 0.00 0.09 0.09 91 1008.1
20260505214016 60 0.0 1.7 0.00 0.09 0.09 93 1008.1
20260505213515 60 0.0 0.9 0.00 0.09 0.09 93 1008.1
20260505213016 60 293 0.9 1.7 0.00 0.09 0.09 92 1007.9
20260505212516 61 0.0 1.7 0.01 0.09 0.09 89 1007.6
20260505212016 60 0.0 0.9 0.02 0.09 0.09 87 1007.4
20260505211516 60 0.0 0.0 0.08 0.09 0.09 91 1007.4
20260505211015 59 0.0 0.0 0.09 0.09 0.09 94 1007.4
20260505210516 59 0.0 0.9 0.09 0.09 0.09 95 1007.4
20260505210015 58 0.0 0.9 0.09 0.09 0.09 95 1007.6
20260505205516 58 0.0 0.9 0.09 0.09 0.09 94 1007.4
20260505205015 58 113 0.9 1.7 0.09 0.09 0.09 94 1007.0
20260505204516 58 0.0 3.5 0.09 0.09 0.09 92 1007.0
20260505204016 58 315 0.9 7.8 0.09 0.09 0.09 91 1007.3
20260505203516 58 315 4.3 7.8 0.09 0.09 0.09 91 1008.3
20260505203036 58 315 4.3 10.4 0.09 0.09 0.09 89 1008.4
20260505202516 59 315 6.1 13.0 0.08 0.08 0.08 87 1008.2
20260505202015 62 315 7.0 16.5 0.07 0.07 0.07 84 1008.0
20260505201516 66 315 6.1 13.0 0.01 0.01 0.01 75 1008.1
20260505201016 71 315 9.6 19.1 0.00 0.00 0.00 60 1007.0
20260505200516 73 225 6.1 15.6 0.00 0.00 0.00 43 1006.2
20260505200036 73 203 7.0 18.2 0.00 0.00 0.00 42 1005.5
20260505195516 73 180 5.2 17.4 0.00 0.00 0.00 42 1005.7
20260505195016 74 158 3.5 8.7 0.00 0.00 0.00 43 1005.6
20260505194516 74 225 5.2 17.4 0.00 0.00 0.00 41 1005.6
20260505194016 74 225 5.2 11.3 0.00 0.00 0.00 41 1005.6
20260505193516 74 248 6.1 14.8 0.00 0.00 0.00 41 1005.5
20260505193036 74 248 6.1 19.1 0.00 0.00 0.00 40 1005.5
20260505192516 74 180 5.2 13.9 0.00 0.00 0.00 40 1005.5
20260505192016 74 203 5.2 13.0 0.00 0.00 0.00 40 1005.6
20260505191516 75 203 5.2 10.4 0.00 0.00 0.00 40 1005.4
20260505191016 75 203 6.1 15.6 0.00 0.00 0.00 40 1005.5
20260505190516 76 225 7.0 17.4 0.00 0.00 0.00 40 1005.6
20260505190036 76 180 5.2 13.9 0.00 0.00 0.00 40 1005.6
20260505185516 76 248 7.0 17.4 0.00 0.00 0.00 40 1005.6
20260505185016 76 203 6.1 15.6 0.00 0.00 0.00 39 1005.8
20260505184536 76 225 6.1 14.8 0.00 0.00 0.00 42 1006.0
20260505184016 75 180 7.0 13.0 0.00 0.00 0.00 41 1006.0
20260505183516 76 225 6.1 15.6 0.00 0.00 0.00 41 1006.1
20260505183016 76 135 6.1 14.8 0.00 0.00 0.00 41 1006.2
20260505182516 75 180 5.2 12.2 0.00 0.00 0.00 41 1006.0
20260505182016 75 270 5.2 14.8 0.00 0.00 0.00 41 1006.2
20260505181515 76 248 5.2 13.9 0.00 0.00 0.00 40 1006.2
20260505181016 76 158 6.1 13.0 0.00 0.00 0.00 41 1006.2
20260505180535 76 180 8.7 21.7 0.00 0.00 0.00 41 1006.3
20260505180016 77 180 7.0 17.4 0.00 0.00 0.00 39 1006.4
20260505175536 76 158 4.3 14.8 0.00 0.00 0.00 42 1006.4
20260505175036 76 135 7.0 16.5 0.00 0.00 0.00 41 1006.4
20260505174516 76 225 5.2 11.3 0.00 0.00 0.00 40 1006.5
20260505174036 76 158 6.1 13.0 0.00 0.00 0.00 42 1006.5
20260505173516 75 225 4.3 10.4 0.00 0.00 0.00 44 1006.6
20260505173016 75 180 5.2 13.0 0.00 0.00 0.00 42 1006.5
20260505172516 75 158 7.8 20.0 0.00 0.00 0.00 44 1006.8
20260505172016 75 158 6.1 18.2 0.00 0.00 0.00 43 1006.7
20260505171536 74 225 6.1 13.9 0.00 0.00 0.00 43 1006.8
20260505171015 74 180 7.0 18.2 0.00 0.00 0.00 45 1007.0
20260505170516 74 315 6.1 20.0 0.00 0.00 0.00 43 1007.0
20260505170016 74 225 6.1 17.4 0.00 0.00 0.00 45 1006.9
20260505165515 74 225 6.1 13.9 0.00 0.00 0.00 43 1007.2
20260505165015 74 158 7.0 17.4 0.00 0.00 0.00 43 1007.1
20260505164516 74 248 7.8 21.7 0.00 0.00 0.00 44 1007.4
20260505164016 75 225 6.1 19.1 0.00 0.00 0.00 44 1007.2
20260505163516 74 225 4.3 17.4 0.00 0.00 0.00 45 1007.3
20260505163016 73 270 5.2 9.6 0.00 0.00 0.00 46 1007.3
20260505162536 73 180 8.7 21.7 0.00 0.00 0.00 46 1007.6
20260505162016 73 180 7.0 20.0 0.00 0.00 0.00 45 1007.5
20260505161516 73 203 7.0 15.6 0.00 0.00 0.00 46 1007.5
20260505161036 73 203 6.1 16.5 0.00 0.00 0.00 46 1007.6
20260505160556 73 180 6.1 17.4 0.00 0.00 0.00 45 1007.6
20260505153016 70 135 6.1 14.8 0.00 0.00 0.00 50 1007.7
20260505152516 70 225 6.1 15.6 0.00 0.00 0.00 50 1007.8
20260505152015 69 248 7.8 17.4 0.00 0.00 0.00 51 1008.2
20260505151536 69 248 5.2 13.9 0.00 0.00 0.00 53 1008.1
20260505151016 69 203 4.3 11.3 0.00 0.00 0.00 54 1008.3
20260505150516 69 225 7.8 14.8 0.00 0.00 0.00 52 1008.7
20260505140516 66 225 2.6 7.8 0.00 0.00 0.00 57 1008.7
20260505125016 65 225 2.6 7.0 0.00 0.00 0.00 61 1008.6
20260505124516 65 225 2.6 8.7 0.00 0.00 0.00 60 1008.6
20260505124016 64 248 2.6 10.4 0.00 0.00 0.00 61 1008.5
20260505123516 64 248 1.7 7.0 0.00 0.00 0.00 61 1008.5
20260505123056 64 225 3.5 9.6 0.00 0.00 0.00 61 1008.4
20260505122516 64 270 2.6 7.8 0.00 0.00 0.00 61 1008.4
20260505122016 64 248 0.9 3.5 0.00 0.00 0.00 61 1008.4
20260505121516 64 293 1.7 7.0 0.00 0.00 0.00 59 1008.4
20260505121016 64 248 0.9 4.3 0.00 0.00 0.00 59 1008.5
20260505120516 64 203 0.9 4.3 0.00 0.00 0.00 61 1008.4
20260505120015 63 248 0.9 4.3 0.00 0.00 0.00 59 1008.6
20260505115536 63 248 0.9 4.3 0.00 0.00 0.00 60 1008.7
20260505115036 62 158 1.7 6.1 0.00 0.00 0.00 62 1008.7
20260505114516 61 248 2.6 6.1 0.00 0.00 0.00 63 1008.7
20260505114016 61 158 0.9 4.3 0.00 0.00 0.00 64 1008.6
20260505113516 60 225 0.9 3.5 0.00 0.00 0.00 63 1008.6
20260505113016 58 135 1.7 6.1 0.00 0.00 0.00 65 1008.6
20260505112516 57 113 1.7 3.5 0.00 0.00 0.00 67 1008.6
20260505112016 57 203 0.9 5.2 0.00 0.00 0.00 69 1008.8
20260505111516 56 225 0.9 4.3 0.00 0.00 0.00 70 1008.9
20260505111016 55 293 0.9 3.5 0.00 0.00 0.00 74 1008.9
20260505110516 55 0.0 1.7 0.00 0.00 0.00 75 1008.9
20260505102016 53 90 0.9 2.6 0.00 0.00 0.00 74 1008.4
20260505101536 53 0.0 2.6 0.00 0.00 0.00 75 1008.2
20260505101036 52 90 1.7 3.5 0.00 0.00 0.00 74 1008.2
20260505100537 53 90 0.9 2.6 0.00 0.00 0.00 74 1008.2
20260505100016 54 68 0.9 2.6 0.00 0.00 0.00 71 1008.3
20260505095516 53 90 0.9 3.5 0.00 0.00 0.00 71 1008.3
20260505095019 53 90 1.7 3.5 0.00 0.00 0.00 73 1008.4
20260505094516 52 90 1.7 4.3 0.00 0.00 0.00 72 1008.4
20260505094016 52 90 1.7 3.5 0.00 0.00 0.00 75 1008.3
20260505093516 52 90 0.9 3.5 0.00 0.00 0.00 74 1008.4
20260505093016 52 90 0.9 2.6 0.00 0.00 0.00 74 1008.5
20260505092516 53 90 0.9 2.6 0.00 0.00 0.00 72 1008.4
20260505092016 53 90 0.9 1.7 0.00 0.00 0.00 71 1008.4
20260505091516 54 90 0.9 2.6 0.00 0.00 0.00 70 1008.4
20260505091016 54 90 0.9 2.6 0.00 0.00 0.00 70 1008.4
20260505090516 54 0.0 1.7 0.00 0.00 0.00 69 1008.4
20260505090016 54 0.0 0.9 0.00 0.00 0.00 69 1008.4
20260505085516 54 90 0.9 1.7 0.00 0.00 0.00 66 1008.4
20260505085016 54 90 0.9 1.7 0.00 0.00 0.00 68 1008.4
20260505084516 54 113 0.9 2.6 0.00 0.00 0.00 67 1008.6
20260505084016 53 90 0.9 2.6 0.00 0.00 0.00 68 1008.5
20260505083536 53 90 0.9 1.7 0.00 0.00 0.00 71 1008.6
20260505083016 53 90 0.9 1.7 0.00 0.00 0.00 70 1008.6
20260505082516 53 0.0 1.7 0.00 0.00 0.00 71 1008.6
20260505082016 53 113 0.9 4.3 0.00 0.00 0.00 70 1008.6
20260505081516 53 113 0.9 3.5 0.00 0.00 0.00 71 1008.7
20260505081016 53 113 0.9 2.6 0.00 0.00 0.00 70 1008.7